CZ-6A DEB, 54583

Orbit data source: Space-Track

CZ-6A DEB, 54583 is space debris in SSO originally from a launch on Fri, 11 Nov 2022 UTC launched from the Taiyaun Space Center, China (TSC). Debris objects in space refer to the collection of defunct objects orbiting the Earth. Examples of debris include non-operational satellites, rocket bodies, and fragments generated from explosions, collisions, or faulty payload assembly.

Loading next visibility...
Identifier
54583, 2022-151MK
Orbit
SSO
Country
Flag of CNCN / PRC
Related business
Manufacturer
SAST
Mission
Spacecraft
Bus & Motor
Unknown
Mass
Unknown
Launch date (UTC)
2022-11-11 (3 years ago)
Launch vehicle
Unknown
Launch site
Taiyaun Space Center, China (TSC)
Object type
Payload
Rocket body
Debris
Shape & HBR
Unknown shape, 0.1 m
Radar Cross Section
Small (<0.1 m²)

Expand to show TLE details & history
Last TLE update: 12 hours ago

TLE from 12 hours ago
0 CZ-6A DEB
1 54583U 22151MK  26130.41898200  .00001346  00000-0  78555-3 0  9997
2 54583  98.8609 119.0994 0088376 129.5751 231.3267 14.08163103178212
Epoch: 2026-05-10T10:03Z
TLE epoch observation values (Epoch: 2026-05-10T10:03:20.044Z)
Latitude
-0.00001°
Longitude
100.04355°
Altitude
908.912 km
Speed
7.377 km/s
True Right ascension
07h 56m 23s
True Declination
0° 00' 00"
Sunlit
Object was in daylight at epoch
Visualization orbit readout
Latitude
Unknown
Longitude
Unknown
Altitude
Unknown
Speed
Unknown
Apparent Right ascension
Unknown
Apparent Declination
Unknown
Sunlit
N/A
Visualization observer readout
Local Sidereal Time
06:27:51
Azimuth
Unknown
Elevation
Unknown
Doppler factor
Unknown
Orbital elements
Apogee altitude
926.839 km
Perigee altitude
798.853 km
Semi-major axis
7,240.983 km
Eccentricity
0.00884
Inclination
98.8609°
RAAN
119.0994°
Arg. of periapsis
129.5751°
True anomaly
230.5415°
Mean anomaly
231.3267°
Eccentric anomaly
230.93356°
Mean motion
3.52247 °/min
Orbital period
102.2 mins
BSTAR
0.00078555
Loading maneuver chart data...
Computing Atmospheric mass density...
Loading historical data...
Loading historical data...
Loading historical data...
Loading historical data...
Loading historical data...
Loading historical data...
Loading historical data...

Documentation

Showing up to 5 results
|